Helicity
78 69 65 77 85 82 105 99 175 111 97 182 155 170 157 156 166 167 203 181 188 164 101 68 73 84 98 72 16 -33 -58 -85 -72 71 -42 -25 -114 176 197 243 308 356 288 484
60 74 80 61 72 72 90 105 89 93 115 206 168 159 150 147 213 213 216 173 119 64 71 76 78 79 36 63 15 -29 -42 -53 -48 29 -9 -59 -68 21 159 313 337 143 51 225
69 74 68 63 59 54 81 108 168 129 149 138 163 165 147 191 153 138 164 107 88 64 52 74 82 39 56 58 24 71 8 -38 -81 -31 53 6 15 38 67 148 403 229 188 370
37 62 51 60 66 57 68 102 144 121 163 165 138 132 132 174 179 126 114 80 80 42 33 23 51 52 27 14 61 42 -0 -22 -41 -33 -37 3 -20 -27 20 89 191 266 208 377
78 68 52 46 63 83 109 119 132 158 141 96 122 96 134 128 112 118 91 96 48 69 70 85 46 60 44 24 53 41 6 -19 -17 -19 10 42 -3 53 -34 -17 49 81 106 173
32 39 46 64 65 115 134 137 147 190 179 171 184 133 124 103 83 59 88 70 77 58 40 64 110 100 83 76 54 41 13 6 3 -2 -4 3 50 22 -26 -8 108 67 128 120
60 59 55 45 51 84 146 137 184 235 301 269 202 163 137 97 76 102 79 70 97 36 41 38 46 47 52 62 42 53 21 12 3 8 15 35 13 -10 -63 -14 76 99 97 164
50 31 19 19 33 14 162 148 159 239 347 284 215 155 144 112 84 95 95 82 50 50 30 21 40 48 35 34 54 38 15 21 13 -5 -0 1 -8 43 65 93 100 113 162 188
36 28 14 18 37 43 113 157 194 202 302 274 125 188 159 142 111 91 60 71 47 44 31 35 51 90 66 58 30 100 77 66 23 15 2 -6 1 25 4 6 101 44 50 78
30 37 43 59 81 75 115 141 144 235 248 178 219 185 139 128 117 124 80 54 56 42 38 27 38 65 36 69 63 80 92 68 52 44 19 10 20 42 34 -31 8 27 41 48
57 61 58 68 67 64 119 128 83 129 115 127 205 268 95 113 99 107 70 60 45 63 70 44 49 72 70 83 72 71 82 81 76 51 53 41 102 32 -3 -2 23 37 54 60
55 52 39 46 61 50 58 99 49 47 73 127 110 135 106 49 66 79 76 81 71 62 82 61 60 63 76 63 58 78 71 58 45 45 49 40 58 34 39 37 22 15 31 45
61 66 63 58 56 50 51 62 90 71 25 76 113 97 127 109 40 31 80 51 38 48 48 64 85 94 74 82 72 81 75 70 63 63 60 70 61 61 59 44 31 33 30 28
45 100 89 73 41 36 96 89 66 64 85 91 138 100 97 41 36 47 41 34 69 91 85 77 90 88 90 85 82 95 77 88 90 81 104 78 60 43 42 46 40 31 25 29
88 88 72 52 44 125 86 59 58 43 68 107 94 51 73 53 51 90 79 59 96 81 79 83 77 72 77 97 96 116 103 86 78 56 54 49 46 31 45 45 37 35 28 30
52 58 96 94 67 65 56 92 31 6 30 41 57 62 74 60 68 68 85 75 86 62 65 76 65 88 68 81 81 61 70 49 65 66 41 38 38 24 24 36 42 32 23 23
32 64 140 134 127 132 99 82 14 16 29 56 76 68 59 54 43 52 66 68 57 56 56 70 74 85 73 73 71 69 72 46 46 43 36 46 43 39 49 18 25 31 21 17
65 98 121 95 75 50 58 51 46 29 76 92 108 91 76 80 83 69 32 35 43 68 61 74 87 88 91 84 60 58 58 43 44 50 32 31 24 30 38 23 29 43 39 29
82 88 115 74 62 59 47 1 35 24 50 90 98 114 98 77 57 42 37 44 54 49 67 78 67 86 93 63 60 49 39 36 20 19 31 36 34 37 37 33 40 28 30 30
101 97 82 94 31 -14 5 3 22 42 49 66 162 86 63 36 41 51 54 55 52 59 54 43 63 63 57 54 36 27 35 34 24 24 36 28 33 31 27 24 20 17 26 38
82 100 90 30 -3 24 23 33 43 38 61 44 48 44 51 27 53 66 65 70 59 63 47 52 53 57 57 58 46 39 35 31 27 19 19 19 20 25 28 30 33 35 41 39
70 62 42 26 36 28 60 58 46 71 69 30 35 61 63 51 49 71 75 83 73 64 47 54 54 37 30 41 34 35 33 31 35 33 36 35 37 40 39 41 42 41 39 39
48 60 64 45 30 111 104 80 55 52 40 41 66 72 46 49 62 64 76 89 95 63 69 58 54 42 32 27 32 37 32 36 34 35 34 31 36 36 41 42 37 38 38 35
85 80 85 72 69 65 57 63 59 44 34 22 33 27 34 41 54 54 68 78 79 82 69 56 45 25 18 23 28 31 36 36 35 33 35 40 43 40 36 37 36 38 38 38
65 45 68 46 51 38 55 56 39 28 31 15 18 15 20 31 44 47 49 66 78 79 61 42 28 20 19 24 31 35 34 32 28 26 28 34 45 41 41 41 36 33 32 33
-3 6 11 14 29 52 60 68 65 49 35 15 9 13 15 21 20 29 46 45 57 46 27 20 11 10 9 18 26 27 26 27 26 30 30 30 31 37 39 35 39 39 39 38
-21 -7 3 14 40 40 47 87 84 64 15 14 12 14 12 -4 6 10 10 24 41 34 28 17 16 10 12 10 12 19 24 23 22 25 27 27 31 31 37 37 33 34 36 30
Wind_Speed
66 70 72 78 82 87 72 63 73 60 62 69 63 74 69 65 67 53 54 52 55 54 56 52 46 40 43 55 55 57 50 53 63 69 41 34 39 49 53 75 65 70 65 68
67 68 72 73 77 81 70 71 64 55 59 74 78 70 73 66 63 62 53 52 46 48 47 48 41 45 46 54 58 52 52 52 59 54 59 52 51 50 55 59 64 70 78 60
65 67 69 70 71 73 63 66 76 63 60 61 73 77 71 72 61 58 47 46 43 49 45 36 39 48 42 63 59 43 46 48 48 55 63 63 55 48 46 53 63 63 63 57
63 64 65 67 66 66 62 65 67 64 76 70 72 67 66 75 70 52 48 45 43 46 42 42 38 34 61 50 41 42 45 50 48 52 47 34 39 40 37 37 45 54 49 52
64 65 63 63 62 58 59 66 68 62 68 60 66 64 64 64 60 51 50 39 44 39 36 33 36 39 39 41 42 43 45 45 48 44 29 25 34 36 35 35 36 35 33 35
62 61 59 59 60 55 58 50 50 58 64 63 65 64 60 60 56 48 36 42 37 35 31 26 13 13 14 18 42 48 41 42 44 42 41 47 54 44 34 30 31 37 47 42
62 59 59 61 53 53 49 48 48 59 70 56 59 55 52 52 50 49 41 30 30 30 45 56 28 13 3 10 13 18 33 38 38 44 42 49 39 31 30 31 31 33 37 39
60 61 59 56 54 50 46 44 48 54 67 55 53 46 44 45 44 45 36 34 29 37 46 41 36 34 30 33 30 23 20 30 36 38 38 38 40 40 45 47 44 37 39 39
61 67 62 55 52 53 51 45 40 47 60 55 43 44 37 42 44 46 37 38 41 31 35 33 29 30 35 34 30 30 24 31 36 38 40 45 40 47 42 44 53 40 39 39
66 63 63 63 60 57 57 53 36 42 48 46 39 37 33 30 34 41 39 37 35 32 30 30 30 32 30 31 31 33 37 40 39 40 41 39 44 44 40 54 55 43 41 42
65 69 68 64 61 58 58 53 39 34 43 45 33 20 20 27 31 37 36 36 29 29 27 30 32 31 30 29 31 33 37 40 40 41 43 48 47 37 44 38 37 39 43 44
69 68 70 67 62 59 56 51 40 30 36 37 27 22 30 27 27 31 30 29 29 26 28 29 30 29 30 26 31 35 35 36 38 39 36 30 34 27 30 34 36 39 41 43
68 70 71 66 61 58 51 42 36 33 33 32 25 24 33 39 37 32 33 31 24 24 29 29 30 30 30 29 29 30 34 39 36 35 31 31 32 32 34 35 36 39 39 40
69 67 69 64 61 54 45 40 32 26 28 27 25 28 32 40 38 35 32 26 25 27 31 32 31 29 34 30 29 32 38 42 36 35 30 32 35 35 37 38 37 37 39 40
70 69 64 65 61 44 44 42 37 34 25 27 24 29 39 40 41 42 38 26 23 25 27 31 30 31 30 31 32 36 40 38 38 38 33 34 36 38 39 39 40 40 40 40
67 63 60 60 54 43 39 40 38 35 29 26 26 28 37 39 41 41 38 33 30 27 29 29 31 33 31 31 33 36 37 32 32 34 34 33 37 31 37 40 42 42 43 43
61 55 47 57 62 54 46 41 39 33 31 29 27 29 33 38 34 36 37 35 31 29 29 31 31 34 32 32 32 36 37 31 34 36 33 31 35 36 41 39 42 42 42 43
55 48 46 47 45 44 49 57 52 34 30 34 31 29 30 44 37 34 33 31 32 36 30 31 31 33 33 32 34 36 37 29 37 39 32 33 37 38 38 38 39 40 42 44
50 44 43 43 45 44 41 39 46 49 37 30 34 34 31 46 40 35 31 31 32 33 31 31 30 33 32 35 36 36 36 35 35 35 33 35 36 38 39 40 40 40 43 44
47 45 47 47 43 36 38 39 39 42 41 38 38 42 31 39 36 36 30 32 31 31 32 29 30 28 33 34 35 35 37 38 37 36 36 36 39 39 40 41 41 43 45 45
48 49 46 41 45 41 40 40 42 44 38 40 42 42 38 36 34 33 35 31 30 30 30 29 29 29 35 36 36 38 38 39 39 37 36 34 37 38 41 42 41 43 44 46
48 42 43 45 48 45 43 44 41 43 38 42 46 42 34 33 33 32 38 29 30 28 29 29 29 33 37 39 39 41 42 42 42 43 42 42 42 41 41 43 43 44 45 46
45 46 46 48 47 56 48 51 42 41 43 43 48 40 33 33 38 31 33 30 29 28 30 29 31 37 41 43 43 45 43 44 44 43 43 44 43 43 41 43 44 45 45 46
50 50 53 51 50 48 45 42 36 30 34 43 39 29 31 34 34 33 29 30 30 28 28 27 38 42 44 45 45 46 46 45 45 45 45 45 45 43 42 43 44 45 47 49
49 50 52 53 43 49 41 40 36 33 24 31 33 33 35 35 31 33 30 29 30 31 29 36 45 42 45 47 47 48 47 46 46 46 47 46 46 44 46 45 44 44 46 49
52 54 51 50 53 54 51 49 42 34 30 32 35 36 36 39 34 32 33 29 30 33 37 43 43 43 46 47 49 48 47 47 46 47 47 45 46 47 49 45 44 46 47 48
51 54 57 54 51 53 47 44 37 29 38 39 38 40 38 35 37 35 35 32 35 41 43 45 46 45 48 48 49 50 50 49 48 50 48 47 47 48 48 48 48 50 50 50
Wind_Direction
348 348 349 350 351 352 358 354 346 357 0 351 353 346 347 347 342 344 342 345 344 344 342 341 343 344 341 331 322 312 307 292 275 271 258 288 281 272 264 247 246 246 250 246
346 348 349 350 352 354 356 349 349 360 1 346 346 346 343 344 348 347 347 344 351 351 347 345 347 340 339 330 316 311 310 296 280 271 260 271 275 280 269 264 252 249 248 246
347 347 349 351 353 356 359 351 345 352 360 356 348 345 346 344 347 345 352 347 349 347 345 348 344 334 337 318 309 322 320 301 284 269 264 266 265 278 282 262 253 250 250 250
349 349 350 352 355 357 358 354 348 350 343 347 348 348 347 345 348 353 354 350 351 348 346 342 339 341 315 326 324 323 318 297 287 286 279 271 265 272 279 270 264 253 252 249
347 347 349 350 353 357 354 348 347 348 342 345 346 347 346 347 348 347 343 346 348 349 346 346 341 343 340 330 322 319 318 299 294 286 283 276 268 277 278 275 271 260 263 263
346 349 349 354 354 357 349 350 351 345 341 343 344 344 347 347 351 355 357 346 349 348 353 356 346 343 350 348 321 309 313 306 297 279 280 270 260 271 272 276 281 265 257 268
348 350 351 349 351 353 350 347 345 339 334 336 339 343 345 347 350 347 350 352 355 2 343 324 344 359 71 22 18 358 322 310 300 285 289 265 269 275 270 267 279 276 272 280
351 349 348 349 351 349 346 348 344 337 331 330 332 336 341 348 353 354 354 5 4 353 346 352 353 347 355 350 346 356 356 324 302 293 289 278 271 278 271 265 263 295 289 295
349 349 347 344 346 347 345 340 339 332 331 334 337 336 338 345 351 357 4 352 349 359 357 357 3 352 336 335 358 353 345 333 312 299 288 275 280 286 284 273 258 289 293 288
348 350 351 349 347 344 341 338 336 330 332 337 343 335 340 357 358 355 355 357 355 354 360 359 354 339 343 336 337 330 325 316 310 301 291 289 296 290 290 261 260 282 285 286
351 348 345 344 344 344 344 342 344 335 340 335 335 348 360 2 0 359 6 356 358 352 353 349 344 339 342 344 345 338 329 318 312 305 293 282 304 294 275 285 295 293 287 285
349 348 347 345 346 347 348 346 355 353 339 345 7 20 7 6 7 1 3 2 354 351 346 345 347 341 341 344 334 338 330 323 314 310 305 320 326 326 312 310 306 305 297 294
350 349 347 347 350 350 352 353 360 3 2 12 22 16 7 356 356 358 358 357 359 353 347 343 337 334 336 333 335 340 335 325 319 316 324 322 325 322 316 313 310 312 316 311
350 351 352 354 352 353 359 357 3 3 3 356 7 12 6 353 357 360 358 357 358 351 340 336 333 331 325 331 335 330 326 316 319 321 326 325 319 315 310 308 312 313 319 316
353 354 356 356 360 10 15 19 22 22 18 12 23 25 5 1 5 2 360 1 359 353 347 340 337 330 328 330 331 326 325 323 316 317 330 320 311 307 305 305 306 308 310 312
356 359 4 6 9 13 16 12 23 23 26 18 11 17 7 4 6 8 6 4 357 355 346 345 332 325 327 329 328 327 331 349 353 337 341 328 310 315 310 302 302 307 306 308
2 7 16 18 19 22 17 12 9 17 22 26 25 18 15 4 11 11 9 2 2 355 348 340 332 321 323 328 328 318 327 351 353 350 351 332 320 310 303 306 302 304 306 308
9 16 21 20 24 28 23 20 18 38 38 23 21 21 17 355 4 5 5 4 357 346 350 340 335 325 324 325 312 324 330 358 344 338 353 336 321 314 308 311 309 306 305 307
13 18 19 18 20 20 21 24 24 24 26 26 20 7 6 348 359 1 9 5 2 349 351 341 340 327 322 297 306 320 330 341 349 351 355 340 330 324 313 309 308 306 305 307
16 18 13 15 20 21 28 27 27 22 22 25 19 6 11 359 2 359 8 358 1 355 348 346 339 333 298 309 316 323 325 331 342 351 344 343 326 323 317 311 307 306 305 309
17 14 19 24 23 29 30 28 26 21 26 20 12 8 6 6 6 1 351 357 357 355 347 340 339 330 311 316 321 323 328 330 334 343 348 354 340 333 321 317 316 316 315 314
24 31 33 28 23 25 27 24 23 21 22 12 5 1 5 4 2 359 339 358 351 1 347 340 341 322 319 320 324 325 325 327 327 326 327 328 326 330 326 320 318 317 317 318
29 26 26 23 25 18 21 13 18 16 12 9 1 6 11 8 352 360 347 353 356 347 345 349 336 320 322 321 322 322 325 325 325 326 326 324 325 326 330 321 318 316 316 316
26 25 22 26 22 24 21 17 18 22 18 10 15 36 26 8 2 1 8 354 348 353 357 358 328 325 322 322 321 321 321 323 323 324 323 323 323 324 330 327 324 318 313 311
31 30 25 27 32 25 27 25 29 34 50 40 36 34 24 16 19 5 8 7 4 356 355 335 320 328 325 322 321 320 321 323 322 322 321 321 322 327 323 325 325 324 319 313
39 37 33 32 29 25 29 32 39 53 58 58 51 46 42 30 33 31 19 28 16 350 336 326 325 329 324 324 323 323 323 323 324 325 324 324 323 323 321 325 326 323 320 317
41 39 39 41 43 38 45 50 57 71 61 59 62 54 60 66 55 54 41 40 351 325 321 317 320 326 322 325 327 325 324 322 324 322 324 324 324 323 323 319 319 317 315 314